Location: Unspecified
(43.4680°N, 87.1740°E)
Time: 05:31:56
(UTC+00:00)

CZ-2D R/B - Pass Details

Date: 17 April 2021
Orbit: 553 x 637 km, 97.9° (Epoch: 17 May)

Event Time Altitude Azimuth Distance (km) Brightness Sun altitude
Rises 22:10:41 0° 4° (N) 2,786 7.4 -13.2°
Reaches altitude 10° 22:12:55 10° 357° (N) 1,895 6.4 -12.8°
Maximum altitude 22:16:43 38° 289° (WNW) 908 4.1 -12.2°
Enters shadow 22:19:35 16° 228° (SW) 1,555 5.0 -11.7°
